Location: Orangeville
(43.9200°N, 80.0943°W)
Time: 08:44:18
(UTC-05:00)

ISS - Pass Details

Date: 03 December 2021
Orbit: 413 x 422 km, 51.6° (Epoch: 24 January)

Event Time Altitude Azimuth Distance (km) Brightness Sun altitude
Rises 18:51:21 0° 302° (WNW) 2,381 0.8 -22.4°
Reaches altitude 10° 18:53:28 10° 303° (WNW) 1,512 -0.3 -22.8°
Enters shadow 18:55:42 38° 309° (NW) 660 -2.5 -23.2°
